McGrath, AK

3:41 PM AKST on January 21, 2017 (GMT -0900)
McGrath

Weather History for PAMC - March, 2013

Change the Weather History Date:

Tuesday, March 26, 2013

  Actual Average Record
Temperature  
Mean Temperature -13 °F 16 °F  
Max Temperature 4 °F 29 °F 47 °F (2015)
Min Temperature -30 °F - -30 °F (2013)
Degree Days  
Heating Degree Days 78 49  
Month to date heating degree days 1495 1418  
Since 1 July heating degree days 12025 11656  
Cooling Degree Days 0    
Month to date cooling degree days 0  
Year to date cooling degree days 0  
Moisture  
Dew Point -21 °F    
Average Humidity 60    
Maximum Humidity 82    
Minimum Humidity 28    
Precipitation  
Precipitation 0.00 in 0.02 in 0.54 in (1991)
Month to date precipitation 0.49 0.70  
Year to date precipitation 3.66 2.73  
Snow  
Snow 0.00 in 0.30 in 6.60 in (1991)
Month to date snowfall 7.2 10.0  
Since 1 July snowfall 73.1 90.0  
Snow Depth 31.00 in    
Sea Level Pressure  
Sea Level Pressure 30.17 in    
Wind  
Wind Speed 2 mph (WSW)    
Max Wind Speed 9 mph    
Max Gust Speed 13 mph    
Visibility 10 miles    
Events      
T = Trace of Precipitation, MM = Missing Value Source: NWS Daily Summary

Daily Weather History Graph

Daily Weather History Graph

Search for Another Location

Airport or City:

Trip Planner

Search our weather history database for the weather conditions in past years. The results will help you decide how hot, cold, wet, or windy it might be!

Date:

Astronomy

Mar. 26, 2013 Rise Set
Actual Time 8:01 AM AKDT 8:56 PM AKDT
Civil Twilight 7:14 AM AKDT 9:42 PM AKDT
Nautical Twilight 6:17 AM AKDT 10:41 PM AKDT
Astronomical Twilight 5:09 AM AKDT 11:50 PM AKDT
Moon 8:54 PM AKDT (3/26) 7:26 AM AKDT (3/26)
Length of Visible Light 14h 27m
Length of Day
12h 54m
Full, 100% of the Moon is Illuminated
Mar 26
Full
Mar 27
Full
Apr 2
Last Quarter
Apr 10
New
Apr 18
First Quarter

Hourly Weather History & Observations

Time (AKDT) Temp. Windchill Dew Point Humidity Pressure Visibility Wind Dir Wind Speed Gust Speed Precip Events Conditions
12:53 AM -8.0 °F -19.2 °F -18.9 °F 59% 30.02 in 10.0 mi SW 4.6 mph - N/A   Scattered Clouds
1:53 AM -13.0 °F -22.7 °F -20.9 °F 68% 30.05 in 10.0 mi SW 3.5 mph - N/A   Scattered Clouds
2:53 AM -20.0 °F - -25.1 °F 78% 30.06 in 10.0 mi Calm Calm - N/A   Scattered Clouds
3:53 AM -17.0 °F - -24.0 °F 70% 30.07 in 10.0 mi Calm Calm - N/A   Scattered Clouds
4:53 AM -25.1 °F - -29.0 °F 82% 30.10 in 10.0 mi Calm Calm - N/A   Clear
5:53 AM -23.1 °F - -29.0 °F 74% 30.11 in 8.0 mi Calm Calm - N/A   Partly Cloudy
6:53 AM -25.1 °F - -31.0 °F 74% 30.12 in 10.0 mi Calm Calm - N/A   Partly Cloudy
7:53 AM -27.9 °F - -33.0 °F 77% 30.13 in 10.0 mi Calm Calm - N/A   Scattered Clouds
8:53 AM -27.0 °F - -33.0 °F 73% 30.15 in 6.0 mi Calm Calm - N/A   Haze
8:56 AM -25.6 °F - -32.8 °F 69% 30.11 in 10.0 mi Calm Calm - N/A   Scattered Clouds
9:53 AM -18.9 °F - -24.0 °F 78% 30.17 in 10.0 mi Calm Calm - N/A   Partly Cloudy
10:53 AM -9.9 °F - -20.0 °F 61% 30.19 in 10.0 mi Calm Calm - N/A   Partly Cloudy
11:53 AM -8.0 °F -16.9 °F -18.0 °F 61% 30.19 in 10.0 mi SSW 3.5 mph - N/A   Partly Cloudy
12:53 PM -2.9 °F - -16.1 °F 54% 30.19 in 10.0 mi Calm Calm - N/A   Partly Cloudy
1:53 PM -0.0 °F - -15.0 °F 49% 30.19 in 10.0 mi Calm Calm - N/A   Scattered Clouds
2:53 PM 1.0 °F -6.7 °F -16.1 °F 45% 30.20 in 10.0 mi West 3.5 mph - N/A   Scattered Clouds
3:53 PM 1.9 °F -10.6 °F -15.0 °F 45% 30.20 in 10.0 mi West 6.9 mph - N/A   Partly Cloudy
4:53 PM 3.9 °F -6.9 °F -14.1 °F 43% 30.22 in 10.0 mi West 5.8 mph - N/A   Partly Cloudy
5:53 PM 3.9 °F -6.9 °F -14.1 °F 43% 30.22 in 10.0 mi WSW 5.8 mph - N/A   Clear
6:53 PM 3.9 °F -8.2 °F -14.1 °F 43% 30.23 in 10.0 mi WSW 6.9 mph - N/A   Clear
7:53 PM 1.9 °F -7.6 °F -15.0 °F 45% 30.23 in 10.0 mi SW 4.6 mph - N/A   Clear
8:53 PM -0.0 °F -9.9 °F -15.0 °F 49% 30.24 in 10.0 mi SW 4.6 mph - N/A   Clear
9:53 PM -9.0 °F -20.4 °F -18.0 °F 65% 30.25 in 10.0 mi Variable 4.6 mph - N/A   Clear
10:53 PM -11.9 °F - -18.9 °F 71% 30.27 in 10.0 mi Calm Calm - N/A   Clear
11:53 PM -17.0 °F - -23.1 °F 74% 30.27 in 10.0 mi Calm Calm - N/A   Clear